CAPE
23 5 2 1 7 17 2 17 71 55 10 0 0 0 0 0 0 0 0 0 0 0 0 0 0 0 0 0 0 0 0 0 0 0 0 0 0 0 0 0 0 0 0 0 0
31 19 10 5 11 24 14 22 76 49 29 1 1 0 0 0 0 0 0 0 0 0 0 0 0 0 0 0 0 0 0 0 0 0 0 0 0 0 0 0 0 0 0 0 0
7 6 5 14 12 7 21 62 97 41 25 12 3 0 0 0 0 0 0 0 0 0 0 0 0 0 0 0 0 0 0 0 0 0 0 0 0 0 0 0 0 0 0 0 8
21 17 4 13 16 14 35 93 24 69 28 0 0 1 0 0 0 0 0 0 0 0 0 0 0 0 0 0 0 0 0 0 0 0 0 0 0 0 0 0 0 0 0 0 11
50 23 12 11 10 12 19 36 41 21 12 1 5 0 0 0 0 0 0 0 0 0 0 0 0 0 0 0 0 0 0 0 0 0 0 0 0 0 0 0 0 0 0 0 0
30 35 12 17 12 16 22 32 69 77 30 3 7 0 0 0 0 0 0 0 0 0 0 0 0 0 0 0 0 0 0 0 0 0 0 0 0 0 0 0 0 0 0 0 0
25 43 18 5 3 6 32 14 58 57 46 14 0 0 0 0 0 0 0 0 0 0 0 0 0 0 0 0 0 0 0 0 0 0 0 0 0 0 0 0 0 0 0 0 0
1 25 25 13 8 6 33 52 66 51 26 14 0 0 0 0 0 0 0 0 0 0 0 0 0 0 0 0 0 0 0 0 0 0 0 0 0 0 0 0 0 0 0 0 0
0 12 30 15 6 23 55 98 78 59 55 8 0 0 0 0 0 0 0 0 0 0 0 0 3 6 0 0 0 0 0 0 0 0 0 0 0 0 0 0 0 0 0 0 0
0 4 30 24 14 66 70 108 72 40 22 0 0 0 0 0 0 0 0 0 0 0 0 0 0 6 0 0 0 0 0 0 0 0 0 0 0 0 0 0 0 0 0 0 0
0 17 38 26 53 98 105 24 2 10 6 0 0 0 0 0 0 0 0 0 0 1 0 0 0 0 0 0 0 0 0 0 0 0 0 0 0 0 0 0 0 0 0 0 0
20 17 44 21 62 77 4 0 0 0 4 0 0 0 0 0 0 0 0 0 0 0 0 0 0 0 0 0 0 0 0 0 0 0 0 0 0 0 0 0 0 0 0 0 0
7 16 40 42 74 40 0 0 0 0 0 0 0 0 0 0 0 0 0 0 0 0 0 0 0 0 0 0 0 0 0 0 0 0 0 0 0 0 0 0 0 0 0 0 0
2 4 19 66 83 29 0 0 0 0 0 0 0 0 0 0 0 0 0 0 0 0 0 0 0 0 0 0 0 0 0 0 0 0 0 0 0 0 0 0 0 0 0 0 0
0 5 1 32 17 11 0 0 0 0 0 0 0 0 0 0 0 0 0 0 0 0 0 0 0 0 0 0 0 0 0 0 0 0 0 0 0 0 0 0 0 0 0 0 0
1 2 1 57 26 2 0 0 0 0 0 0 0 0 0 0 0 0 0 0 0 0 0 0 0 0 0 0 0 0 0 0 0 0 0 0 0 0 0 0 0 0 0 0 0
2 1 18 41 35 0 0 1 0 0 0 0 0 0 0 0 0 0 0 0 0 0 0 0 0 0 0 0 0 0 0 0 0 0 0 0 0 0 0 0 0 0 0 0 0
1 1 34 21 1 0 5 0 0 0 0 0 0 0 0 0 0 0 0 0 0 0 0 0 0 0 0 0 0 0 0 0 0 0 0 0 0 0 0 0 0 0 0 0 0
0 0 19 1 0 0 2 0 0 0 0 0 0 0 0 0 0 0 0 0 0 0 0 0 0 0 0 0 0 0 0 0 0 0 0 0 0 0 0 0 0 0 0 0 0
0 0 9 6 0 4 3 0 0 0 0 0 0 0 0 0 0 0 0 0 0 0 0 0 0 0 0 0 0 0 0 0 0 0 0 0 0 0 0 0 0 0 0 0 0
0 1 0 0 1 16 0 0 0 0 0 0 0 0 0 0 0 0 0 0 0 0 0 0 0 0 0 0 0 0 0 0 0 0 0 0 0 0 0 0 0 0 0 0 0
0 0 0 0 2 2 1 0 0 0 0 0 0 0 0 0 0 0 0 0 0 0 0 0 0 0 0 0 0 0 0 0 0 0 0 0 0 0 0 0 0 0 0 0 0
0 0 0 1 0 0 0 0 0 0 0 0 0 0 0 0 0 0 0 0 0 0 0 0 0 0 0 0 0 0 0 0 0 0 0 0 0 0 0 0 0 0 0 0 0
0 0 0 0 0 0 0 0 0 0 0 0 0 0 0 0 0 0 0 0 0 0 0 0 0 0 0 0 0 0 0 0 0 0 0 0 0 0 0 0 0 0 0 0 0
0 0 0 0 0 0 0 0 0 2 4 2 0 0 0 0 0 0 0 0 0 0 0 0 0 0 0 0 0 0 0 0 0 0 0 0 0 0 0 0 0 0 0 0 0
0 0 0 0 0 1 0 0 0 0 0 0 0 0 0 0 0 0 0 0 0 0 0 0 0 0 0 0 0 0 0 0 0 0 0 0 0 0 0 0 0 0 0 0 0
0 2 0 0 0 0 0 0 0 0 0 0 0 0 0 0 0 0 0 0 0 0 0 0 0 0 0 0 0 0 0 0 0 0 0 0 0 0 0 0 0 0 0 0 0
CIN
-2 -11 -18 -29 -14 -15 -6 -12 0 0 -50 0 0 0 0 0 0 0 0 0 0 0 0 0 0 0 0 0 0 0 0 0 0 0 0 0 0 0 0 0 0 0 0 0 0
-3 -6 -10 -17 -13 -14 -8 -7 -34 0 -19 -67 -56 0 0 0 0 0 0 0 0 0 0 0 0 0 0 0 0 0 0 0 0 0 0 0 0 0 0 0 0 0 0 0 0
-3 -7 -6 -12 -15 -17 -117 -38 -48 -8 -19 -47 -53 0 0 0 0 0 0 0 0 0 0 0 0 0 0 0 0 0 0 0 0 0 0 0 0 0 0 0 0 0 0 0 -315
-1 -9 -6 -8 -24 -20 -9 -36 -103 -100 -13 -53 -27 -14 0 0 0 0 0 0 0 0 0 0 0 0 0 0 0 0 0 0 0 0 0 0 0 0 0 0 0 0 0 0 -344
0 -3 -7 -13 -18 -20 -15 -7 -28 -11 -5 -24 -11 0 0 0 0 0 0 0 0 0 0 0 0 0 0 0 0 0 0 0 0 0 0 0 0 0 0 0 0 0 0 0 0
-4 -1 -10 -8 -12 -31 -18 -6 -92 -52 -1 -9 -8 0 0 0 0 0 0 0 0 0 0 0 0 0 0 0 0 0 0 0 0 0 0 0 0 0 0 0 0 0 0 0 0
-2 0 -7 -5 -30 -23 -37 -27 -12 -2 -2 -5 -4 0 -1 0 0 0 0 0 0 0 0 0 0 0 0 0 0 0 0 0 0 0 0 0 0 0 0 0 0 0 0 0 0
-3 0 -4 -8 -26 -26 -16 -30 -37 -6 -7 -12 0 0 -1 0 0 0 0 0 0 0 0 0 0 0 0 0 0 0 0 0 0 0 0 0 0 0 0 0 0 0 0 0 0
0 -3 -3 -10 -28 -17 -20 -5 -7 -15 -6 -25 0 0 0 0 0 0 0 0 0 0 0 0 -5 -8 0 0 0 0 0 0 0 0 0 0 0 0 0 0 0 0 0 0 0
0 -5 -5 -11 -34 -13 -12 -4 -4 -14 -51 0 0 0 0 0 0 0 0 0 0 0 0 0 0 -5 0 0 0 0 0 0 0 0 0 0 0 0 0 0 0 0 0 0 0
0 -10 -3 -15 -11 -12 -2 -10 0 0 0 0 0 0 0 0 0 0 0 0 -14 -3 0 0 0 0 0 0 0 0 0 0 0 0 0 0 0 0 0 0 0 0 0 0 0
-5 -21 -1 -14 -18 -7 -53 0 0 0 0 0 0 0 0 0 0 0 0 0 0 -1 0 0 0 0 0 0 0 0 0 0 0 0 0 0 0 0 0 0 0 0 0 0 0
-17 -14 -1 -12 -7 -1 0 0 0 0 0 0 0 0 0 0 0 0 0 0 0 0 0 0 0 0 0 0 0 0 0 0 0 0 0 0 0 0 0 0 0 0 0 0 0
0 -6 0 -3 0 -1 0 0 0 0 0 0 0 0 0 0 0 0 0 0 0 0 0 0 0 0 0 0 0 0 0 0 0 0 0 0 0 0 0 0 0 0 0 0 0
0 0 0 -1 -2 -1 0 0 0 0 0 0 0 0 0 0 0 0 0 0 0 0 0 0 0 0 0 0 0 0 0 0 0 0 0 0 0 0 0 0 0 0 0 0 0
0 0 -12 0 -3 -4 0 0 0 0 0 0 0 0 0 0 0 0 0 0 0 0 0 0 0 0 0 0 0 0 0 0 0 0 0 0 0 0 0 0 0 0 0 0 0
0 0 -10 0 -1 -15 0 -37 -2 0 0 0 0 0 0 0 0 0 0 0 0 0 0 0 0 0 0 0 0 0 0 0 0 0 0 0 0 0 0 0 0 0 0 0 0
0 0 -8 -1 -1 0 -37 -2 0 0 0 0 0 0 0 0 0 0 0 0 0 0 0 0 0 0 0 0 0 0 0 0 0 0 0 0 0 0 0 0 0 0 0 0 0
0 0 -8 0 0 0 -12 0 0 0 0 0 0 0 0 0 0 0 0 0 0 0 0 0 0 0 0 0 0 0 0 0 0 0 0 0 0 0 0 0 0 0 0 0 0
0 0 -3 -9 0 -1 0 0 0 0 0 0 0 0 0 0 0 0 0 0 0 0 0 0 0 0 0 0 0 0 0 0 0 0 0 0 0 0 0 0 0 0 0 0 0
0 0 0 0 -13 0 0 0 0 0 0 0 0 0 0 0 0 0 0 0 0 0 0 0 0 0 0 0 0 0 0 0 0 0 0 0 0 0 0 0 0 0 0 0 0
0 0 0 0 0 0 0 0 0 0 0 0 0 0 0 0 0 0 0 0 0 0 0 0 0 0 0 0 0 0 0 0 0 0 0 0 0 0 0 0 0 0 0 0 0
0 0 0 0 0 0 0 0 0 0 0 0 0 0 0 0 0 0 0 0 0 0 0 0 0 0 0 0 0 0 0 0 0 0 0 0 0 0 0 0 0 0 0 0 0
0 0 0 0 0 0 0 0 0 0 0 0 0 0 0 0 0 0 0 0 0 0 0 0 0 0 0 0 0 0 0 0 0 0 0 0 0 0 0 0 0 0 0 0 0
0 0 0 0 0 0 0 0 0 -8 -38 -37 0 0 0 0 0 0 0 0 0 0 0 0 0 0 0 0 0 0 0 0 0 0 0 0 0 0 0 0 0 0 0 0 0
0 0 0 0 0 0 0 0 0 0 0 0 0 0 0 0 0 0 0 0 0 0 0 0 0 0 0 0 0 0 0 0 0 0 0 0 0 0 0 0 0 0 0 0 0
0 0 0 0 0 0 0 0 0 0 0 0 0 0 0 0 0 0 0 0 0 0 0 0 0 0 0 0 0 0 0 0 0 0 0 0 0 0 0 0 0 0 0 0 0
Wind_Speed
30 31 32 31 30 32 31 31 26 24 23 22 21 19 18 18 19 21 20 20 21 10 10 4 19 23 23 21 22 19 22 24 22 18 19 12 12 11 13 4 12 15 7 9 26
29 28 28 28 29 31 29 28 25 23 23 22 22 19 17 17 20 26 28 23 19 12 10 5 19 21 29 24 21 23 24 24 22 19 19 12 13 9 8 6 12 12 13 10 19
30 26 26 27 28 29 27 26 24 23 21 22 22 21 18 17 22 28 24 25 20 17 16 15 11 21 27 28 24 25 27 24 23 22 18 12 14 16 11 8 12 1 4 13 20
33 29 25 26 27 29 28 24 22 21 21 21 22 22 18 21 29 22 17 21 14 16 13 13 11 28 26 32 27 29 24 25 24 21 17 15 13 18 14 17 18 6 12 14 20
36 29 26 25 26 29 28 26 21 20 20 21 21 20 22 28 27 18 15 16 15 14 18 14 11 25 31 30 31 29 25 25 26 24 18 16 18 20 21 19 13 7 7 11 17
35 33 27 27 29 28 28 27 23 20 18 20 20 19 24 34 21 13 17 17 19 17 16 18 18 15 27 31 34 29 31 29 27 26 21 19 20 20 23 16 10 8 9 9 14
34 36 30 29 32 33 28 28 22 22 19 17 18 22 28 26 17 14 15 20 20 20 18 20 20 16 19 30 31 30 38 36 31 25 25 21 24 25 21 17 12 12 12 14 14
33 37 30 30 33 35 33 29 24 22 20 17 17 21 29 28 18 20 15 21 19 17 19 17 16 17 16 22 26 32 35 42 32 28 25 24 31 24 20 16 14 18 21 23 27
33 32 30 29 33 34 33 30 27 22 21 16 18 19 26 19 25 20 18 22 21 19 17 20 18 19 16 26 26 30 38 44 40 29 27 26 30 27 23 22 18 17 25 27 30
31 30 29 31 31 34 31 29 25 24 17 14 17 22 24 23 21 18 16 15 22 21 20 26 24 23 21 30 37 34 38 38 42 32 31 32 31 26 25 25 24 25 26 30 31
31 37 27 31 31 33 30 29 28 27 28 27 26 22 17 18 18 20 17 15 18 24 31 28 31 34 29 25 30 29 33 35 35 31 33 36 35 33 28 29 30 33 31 34 35
36 40 39 29 30 31 32 32 30 26 29 21 20 21 15 17 20 18 16 20 25 31 29 30 46 30 25 25 26 36 32 37 32 31 33 35 39 37 30 33 36 36 37 39 35
33 39 39 27 29 29 34 32 24 24 26 28 25 24 18 19 21 22 19 19 25 28 33 37 32 27 25 29 27 43 36 34 36 30 32 33 42 41 35 36 37 38 39 39 40
31 33 40 30 31 30 35 26 25 22 30 33 34 32 25 20 22 26 24 18 26 31 30 37 35 30 30 36 28 47 26 26 31 32 44 32 50 45 42 40 41 41 39 41 38
32 36 37 33 28 38 33 26 24 23 39 32 35 23 26 26 20 28 27 21 26 25 29 34 33 29 37 37 31 35 23 26 29 37 36 38 43 44 38 49 46 44 43 44 39
32 37 33 36 31 31 28 24 22 33 38 29 30 31 29 30 27 26 29 24 22 22 29 29 24 27 32 33 35 25 22 24 25 33 48 45 45 47 45 42 45 51 47 45 37
33 36 39 38 34 29 27 26 34 41 27 31 31 31 31 30 26 28 31 29 27 32 34 33 31 29 26 32 28 29 26 35 40 42 54 40 46 53 33 41 43 44 45 44 37
32 36 41 40 31 33 30 34 39 39 32 24 30 31 35 30 30 31 31 35 32 28 29 35 43 32 29 31 35 34 32 35 42 45 45 36 47 51 42 39 35 39 39 35 31
29 35 38 41 34 36 37 43 44 31 29 25 23 33 35 34 31 32 35 39 33 27 30 36 37 28 28 27 25 32 36 32 32 32 41 43 46 44 37 42 42 39 34 34 29
29 35 36 40 36 39 42 41 34 28 29 26 30 35 36 37 34 34 35 38 37 35 29 28 37 28 27 24 26 30 26 32 36 43 47 43 45 47 38 43 41 38 36 30 26
30 39 32 35 36 45 48 40 35 29 27 33 32 35 37 39 41 41 38 33 38 36 30 27 31 32 26 33 33 29 33 31 30 38 46 50 47 35 37 38 40 38 35 30 25
30 43 33 36 47 48 49 42 29 26 28 31 32 31 35 33 38 41 46 43 36 33 36 29 29 34 36 28 29 32 33 34 39 42 38 42 50 28 31 36 34 36 30 28 25
35 33 32 40 50 52 44 40 32 32 32 30 32 31 28 31 37 38 40 38 31 33 37 29 33 36 33 33 32 37 34 33 34 32 44 47 53 33 29 29 29 30 26 22 20
31 36 33 34 40 48 43 42 39 33 36 31 31 30 25 29 31 37 39 33 33 33 32 29 32 41 45 39 29 38 35 32 33 40 41 47 49 38 34 30 24 20 19 19 19
27 33 28 44 45 47 42 43 40 36 34 32 33 35 28 29 30 35 33 33 34 34 33 33 43 37 37 35 32 35 36 34 35 40 40 55 50 45 37 37 32 26 23 23 23
26 28 24 29 39 46 42 49 44 36 32 35 35 32 28 28 31 31 27 35 40 34 37 35 43 38 39 32 33 36 32 31 36 38 44 47 57 37 34 34 34 31 26 26 24
21 20 23 30 41 48 48 42 47 40 31 28 29 30 33 30 26 26 28 28 26 33 37 39 39 37 48 35 31 39 36 31 33 32 40 47 54 37 35 29 28 30 29 30 28
Wind_Direction
222 224 225 226 226 221 220 224 218 215 220 221 226 232 236 237 237 241 242 250 261 263 244 256 247 245 251 245 251 254 251 244 249 250 257 259 259 262 264 294 266 262 334 244 124
221 220 220 222 223 219 217 220 214 216 217 219 223 229 234 236 241 243 241 246 260 249 240 231 243 244 239 243 248 247 248 243 252 262 257 252 252 252 272 275 274 272 260 108 121
219 214 218 218 217 213 212 213 214 210 214 216 222 229 234 241 244 248 243 241 250 250 246 257 257 245 240 242 249 248 246 248 253 263 260 246 251 255 258 267 271 267 118 129 132
222 216 210 211 210 209 208 204 206 205 210 212 219 227 233 240 239 244 230 232 229 245 250 249 244 238 242 234 247 244 251 252 255 266 258 246 250 252 254 267 259 247 133 139 141
223 221 213 210 204 205 206 205 201 207 210 209 216 223 233 234 242 254 216 221 236 242 239 244 234 242 238 237 242 245 253 256 258 262 256 250 252 253 251 263 258 233 161 149 146
226 222 213 212 209 200 202 206 206 205 203 203 209 218 234 233 248 259 226 229 231 238 244 247 254 255 242 241 238 247 255 255 258 256 254 248 254 255 251 260 239 209 180 172 155
226 222 216 214 211 209 203 205 201 202 197 196 204 229 235 231 248 245 232 235 237 241 240 251 262 253 257 245 248 255 247 252 255 254 250 249 251 250 252 248 231 229 225 233 235
225 223 214 212 210 208 206 201 199 201 200 198 209 238 239 240 258 243 243 233 239 246 242 247 259 259 263 258 253 246 245 240 248 249 250 245 247 250 251 241 231 239 239 240 237
229 226 212 208 208 204 200 199 198 200 198 196 219 241 238 247 241 246 242 234 233 245 252 248 255 254 257 244 246 241 241 240 244 248 247 245 250 249 247 243 240 239 241 241 238
237 226 211 207 203 199 194 193 193 201 196 210 233 237 244 234 235 235 245 226 226 235 239 242 245 250 243 238 241 242 244 243 239 242 243 244 248 253 245 244 243 243 244 241 239
230 220 204 202 197 190 179 183 196 212 209 222 227 241 236 231 229 231 233 222 227 230 233 238 238 239 241 246 254 253 248 245 243 244 242 244 247 249 248 245 244 243 244 241 239
224 216 207 193 188 182 192 205 206 219 211 236 223 241 239 220 225 222 215 229 228 228 232 241 240 245 249 251 252 252 251 244 247 245 244 247 247 247 250 245 243 242 243 240 245
230 215 207 189 178 187 202 212 212 190 220 231 223 232 224 229 226 212 215 237 226 228 232 238 253 244 243 246 248 244 251 248 244 246 250 248 248 247 249 247 247 245 244 245 243
233 225 209 189 192 195 207 204 198 224 225 228 225 231 228 228 235 223 223 229 237 234 237 246 247 243 244 246 243 238 261 256 246 245 243 247 245 246 245 247 245 245 246 243 246
236 224 212 186 195 203 199 198 206 230 226 225 223 232 224 225 225 226 224 243 230 237 235 242 243 243 242 244 246 251 262 259 255 248 249 246 248 247 249 245 245 245 245 246 250
239 226 230 200 205 199 191 191 210 220 233 224 218 219 216 228 233 217 222 242 237 241 239 244 257 240 242 245 245 249 258 261 262 253 246 245 245 248 246 249 249 246 249 250 254
239 232 227 202 201 185 186 191 214 223 223 228 216 209 211 224 229 215 213 226 232 233 236 241 247 249 248 243 245 241 242 248 249 248 245 249 247 244 256 253 252 253 253 253 254
243 231 224 208 187 183 189 201 221 222 219 234 220 212 218 219 230 225 218 227 238 238 236 235 242 243 245 247 242 238 238 249 249 250 249 253 248 249 252 257 260 259 260 259 253
245 229 225 210 188 187 191 209 228 222 222 221 213 211 225 225 230 230 226 226 231 232 241 238 243 248 249 249 240 244 243 249 261 264 257 255 256 262 261 257 258 262 264 259 255
235 224 230 207 193 192 197 214 233 230 216 210 225 223 219 213 223 224 225 231 230 234 245 250 243 251 248 251 251 246 240 247 253 254 255 256 256 255 260 258 259 260 261 263 260
231 219 228 216 194 201 203 210 229 229 214 223 230 229 231 224 228 226 230 245 226 229 243 243 246 246 247 242 241 245 244 250 256 256 256 257 259 266 267 265 261 262 262 263 260
227 217 226 219 204 209 212 218 229 223 226 232 232 235 232 225 231 233 233 236 228 224 235 242 245 245 244 253 251 250 249 244 250 253 261 263 258 277 276 271 270 268 269 266 264
224 226 226 219 208 208 214 222 227 223 224 228 231 235 235 230 234 235 237 238 232 225 229 233 244 242 249 252 251 248 249 249 252 262 257 260 258 268 280 282 278 274 272 269 264
226 222 225 219 220 208 209 213 219 230 229 233 233 234 232 233 239 235 237 240 236 233 234 235 247 242 243 250 249 250 249 252 252 255 260 261 262 268 269 275 282 282 277 273 269
233 222 230 219 215 211 216 212 216 222 227 230 233 230 228 235 233 238 236 238 238 237 237 239 242 247 250 254 253 255 251 250 253 257 259 245 263 266 268 269 276 283 281 277 275
232 226 234 231 219 214 217 217 215 220 225 226 231 228 230 236 234 233 234 236 235 237 234 239 244 246 249 255 256 255 256 256 254 257 261 264 258 272 276 272 273 275 277 276 276
241 238 238 235 224 217 219 217 216 221 233 234 232 231 236 241 244 245 241 243 244 237 233 236 240 244 246 252 258 257 252 254 260 258 261 261 248 274 273 275 276 276 275 276 276